Погода в Екатерининском

Россия / Пермский край     58°28′26″N   54°04′29″E
темп.,
°C
ветер,
м/с
пор.,
м/с
влажн.,
%
обл.,
%
осадки,
мм/ч
давл.,
гПа
погр.,
м
8 марта, пн
пн823:00−17ююв229886 0.1 100620
02:00−16ююв239899 0.1 100377
05:00−15юв389699 0.1 1001270
08:00−14юв4895100 0.5 999395
11:00−12юв4892100 0.9 997523
14:00−10вюв4790100 0.3 995597
17:00−9всв3692100 0.6 994500
20:00−11ссв2596100 0.4 996142
9 марта, вт
вт923:00−12ссв1297100 0.9 99837
02:00−13ссв2297100 0.3 99971
05:00−13ссв2397100 0.6 1001128
08:00−14с269698 0.3 1002229
11:00−13с259198 0.3 1005369
14:00−11с2386100 0.1 1007496
17:00−11ссв3490100 0.2 1009489
20:00−15ссв3795100 0.2 1011342
10 марта, ср
ср1023:00−18ссв3895100 0.4 1013383
02:00−22ссв3895100 0.1 1014361
05:00−26ссв3109495 0.1 1014263
08:00−29ссв4119243 0.0 1015269
11:00−24с5108651 0.0 1016375
14:00−19с5117957 0.0 1015634
17:00−18с5108059 0.0 1014758
20:00−21ссз4119273 0.0 1015418
11 марта, чт
чт1123:00−23ссз399539 0.0 1015251
02:00−24сз379712 0.0 1014140
05:00−24сз389631 0.0 1014214
08:00−21зсз3897100 0.1 1014287
11:00−16зсз3791100 0.2 1013347
14:00−11зсз4789100 0.2 1012645
17:00−9с2492100 0.8 1012389
20:00−11с2795100 0.4 1013337
12 марта, пт
пт1223:00−11ссз1596100 0.9 1015313
02:00−12сз3994100 0.3 1017356
05:00−15зсз31094100 0.3 1018376
08:00−18зсз41095100 0.0 1020295
11:00−14зсз4986100 0.0 1021375
14:00−9зсз51075100 0.0 1021660
17:00−8з51079100 0.0 1021855
20:00−10з41187100 0.0 1022621